Regional Weather Roundup
Issued by NWS

Home | Current Version | Previous Version | Text Only | Print | Product List | Glossary On
Versions: 1 2 3 4 5 6 7 8 9 10 11 12 13 14 15 16 17 18 19 20 21 22 23 24 25 26 27
000
ASUS45 KBOU 240210
RWRCO

WEATHER ROUNDUP FOR COLORADO
NATIONAL WEATHER SERVICE DENVER/BOULDER CO
800 PM MDT WED MAY 23 2018

NOTE: "FAIR" INDICATES FEW OR NO CLOUDS BELOW 12000 FEET WITH NO
SIGNIFICANT WEATHER AND/OR OBSTRUCTIONS TO VISIBILITY.

COZ001>005-013-030-031-240300-
...NORTHWEST COLORADO...

CITY           SKY/WX    TMP DP  RH WIND       PRES   REMARKS
CRAIG          MOCLDY    60  40  47 SW7       30.06R
HAYDEN         FAIR      60  35  39 W7        30.08R
MEEKER         FAIR      68  28  22 W7        30.06R
RANGELY        FAIR      66  36  32 NW10      30.02R
RABBIT EARS PA FAIR      45  32  61 W10       30.32R
STEAMBOAT SPGS MOCLDY    62  37  38 NW3       30.10R
WALDEN         FAIR      57  28  33 W9        30.18R
$$

COZ006>008-011-240300-
...WEST CENTRAL VALLEYS...

CITY           SKY/WX    TMP DP  RH WIND       PRES   REMARKS
GRAND JUNCTION FAIR      78  27  15 W7        29.96R
MONTROSE       FAIR      73  17  12 W13       30.03R
EAGLE          FAIR      70  25  18 W12       30.07R
RIFLE          FAIR      74  25  16 W12       30.00R
DELTA          FAIR      79  16   9 W12       29.99R
NUCLA          FAIR      73  16  11 SW14      30.08R
$$

COZ017>023-064>068-240300-
...SOUTHWEST COLORADO...

CITY           SKY/WX    TMP DP  RH WIND       PRES   REMARKS
DURANGO        FAIR      71  19  14 NW9       30.07S
CORTEZ         FAIR      73  21  14 SW6       30.05R
PAGOSA SPRINGS FAIR      67  11  11 W7        30.16R
TELLURIDE      FAIR      61  15  16 S3        30.27R
WOLF CREEK PAS FAIR      45  18  33 W6G20     30.47R
$$

COZ009-010-012-014-032>034-037-058>063-240300-
...CENTRAL COLORADO...

CITY           SKY/WX    TMP DP  RH WIND       PRES   REMARKS
ASPEN          FAIR      57  27  31 SW3       30.13R
BUENA VISTA    FAIR      62  17  17 W8        30.13R
COPPER MTN     MOCLDY    46  23  39 W7G18     30.41R
BERTHOUD PASS  FAIR      37  28  70 W14G24    30.44R
COTTONWOOD PAS FAIR      63  16  16 SW6       30.27R
GUNNISON       FAIR      65  21  18 W7        30.15R
GRANBY         FAIR      62  29  28 SW3       30.17R
KREMMLING      FAIR      66  25  20 NW5       30.12R
LEADVILLE      FAIR      53  23  31 NE5       30.26R
MONARCH PASS   FAIR      46  18  31 MISG      30.51R
SALIDA         FAIR      67  20  16 W9        30.18R
SUNLIGHT       FAIR      46  21  36 SW7G16    30.36R
WILKERSON PASS FAIR      50  12  22 SW8       30.38R
$$

COZ069>075-240300-
...SAN LUIS VALLEY/SANGRE DE CRISTO MOUNTAINS...

CITY           SKY/WX    TMP DP  RH WIND       PRES   REMARKS
ALAMOSA        FAIR      67  22  18 SW9       30.13R
DEL NORTE      FAIR      65  19  17 W9        30.17R
LA VETA PASS   FAIR      55  18  22 MISG      30.40R
SAGUACHE       NOT AVBL
$$

COZ035-036-038>040-240300-
...NORTHERN COLORADO FRONT RANGE...

CITY           SKY/WX    TMP DP  RH WIND       PRES   REMARKS
DENVER INTL AP FAIR      71  44  37 N10       29.95R
AURORA         PTCLDY    70  45  40 N10       29.97R
FRONT RANGE AP MOCLDY    73  46  38 N13G23    29.97R
ERIE MUNI ARPT FAIR      71  45  39 NE3       29.99S
BOULDER MUN AP FAIR      70  48  46 CALM      29.96R
CENTENNIAL     FAIR      71  45  39 N15       29.97R
BROOMFIELD     PTCLDY    68  45  42 NW7       29.98R
FORT COLLINS   FAIR      67  53  61 NW7       29.95R
LONGMONT       FAIR      70  51  51 NW3       29.96S
$$

COZ041-046-047-076>085-087-088-240300-
...PIKES PEAK/PALMER DIVIDE AND SOUTHERN FOOTHILLS...

CITY           SKY/WX    TMP DP  RH WIND       PRES   REMARKS
COLO. SPRINGS  FAIR      74  44  34 S18G29    29.99R
A. F. ACADEMY  FAIR      70  41  34 S12       30.01R
SCHRIEVER AFB  NOT AVBL
CHEYENNE MTN   FAIR      68  42  38 CALM      30.00R
ELLICOTT         N/A    N/A N/A N/A S17G26    30.00R
FALCON         NOT AVBL
FORT CARSON    FAIR      73  46  37 S16G24    29.95R
LIMON          FAIR      72  46  39 S16G26    29.96S
MONUMENT HILL  FAIR      66  41  39 S18       30.06R
CANON CITY     FAIR      81  23  12 SW7       29.92R
WALSENBURG     FAIR      70  54  56 S15       30.00S
TRINIDAD       FAIR      69  48  47 S10       30.03F
$$

COZ042>045-048>051-090-091-240300-
...NORTHEAST COLORADO...

CITY           SKY/WX    TMP DP  RH WIND       PRES   REMARKS
GREELEY ARPT   FAIR      73  50  44 CALM      29.93R
AKRON          FAIR      72  50  45 SE14      29.92R
BURLINGTON     FAIR      75  53  46 S22G31    29.94S
WRAY           FAIR      75  46  35 S15G21    29.88R
YUMA           CLOUDY    72  27  18 SE9G33    29.90S
STERLING       FAIR      73  52  46 NE5       29.87R
HOLYOKE        TSTM      72  55  56 S15G51    29.88R
FORT MORGAN    FAIR      69  49  48 E7        29.91S
$$

COZ086-089-092>099-240300-
...SOUTHEAST COLORADO...

CITY           SKY/WX    TMP DP  RH WIND       PRES   REMARKS
PUEBLO         FAIR      78  49  35 S20G32    29.88R
LA JUNTA       FAIR      77  52  41 S12       29.90R
LAMAR          FAIR      76  53  44 S21G32    29.88R
SPRINGFIELD      N/A     68  58  70 S15       30.00S
$$




USA.gov is the U.S. government's official web portal to all federal, state and local government web resources and services.